Simultaneous Nadir Overpasses (SNOs) Predictions

Prediction of SNOs between GOES-15 and NPP Satellite Orbit:

Table of predicted SNOs for the next 14.0 days since TLE Epoch: 10/22/2016
Index Date Time (GOES-15) GOES-15 Lat,Lon NPP Lat,Lon Distance(km) Time Diff (sec)
1 10/23/2016 10:08:57 0.18,-134.59 -0.68,-130.63 451.27 80
2 10/24/2016 22:28:15 -0.15,-134.50 -0.48,-135.94 164.66 80
3 10/25/2016 22:12:10 -0.17,-134.45 0.53,-131.41 346.74 80
4 10/27/2016 10:31:18 0.14,-134.40 0.67,-136.68 260.30 80
5 10/28/2016 10:15:13 0.15,-134.35 -0.34,-132.15 250.55 80
6 10/29/2016 22:34:30 -0.12,-134.24 -0.82,-137.47 366.85 80
7 10/30/2016 22:18:25 -0.14,-134.19 0.14,-132.93 144.07 80
8 11/01/2016 10:37:33 0.11,-134.14 1.00,-138.21 463.10 80
9 11/02/2016 10:21:28
